Flag for Romania Weather past 2 weeks in Bucharest, Romania

Now
91 °F

Passing clouds.


Feels Like: 89 °F
Forecast: 71 / 96 °F
Wind: 12 mph from Northeast

Location: Bucharest / Imh

Current Time: Aug 4, 2015 at 5:45:17 PM

Latest Report: Aug 4, 2015 at 5:00 PM


Visibility: N/A

Pressure: 29.95 "Hg

Humidity: 30%

Dew point: 55 °F

Location of BucharestLocation

Historic Weather in Bucharest — Graph

°F

Bucharest temperature yesterday

Maximum temperature yesterday: 88 °F (at 3:30 PM)
Minimum temperature yesterday: 63 °F (at 4:30 AM)
Average temperature yesterday: 76 °F

Past Weeks' High & Low Weather Summary

 TemperatureHumidityPressure
High100 °F (Jul 30, 4:30 PM)100% (Aug 1, 3:30 AM)30.18 "Hg (Aug 1, 3:30 AM)
Low61 °F (Aug 2, 6:00 AM)20% (Jul 28, 6:00 PM)29.68 "Hg (Jul 27, 6:00 PM)
Average80 °F53%29.91 "Hg
* Reported Jul 20 4:00 PM — Aug 4 4:30 PM, Bucharest, Weather by CustomWeather, © 2015

Note: Actual official high and low records may vary slightly from our data, if they occured in-between our weather recording intervals... More about our weather records

Advertising

Bucharest weather history for previous 24 hours

 ConditionsComfort  
Time TempWeatherWind HumidityBarometerVisibility
4:30 PM
Tue, Aug 4
91 °FPassing clouds.10 mph30%29.95 "HgN/A
4:00 PM91 °FHot.10 mph30%29.95 "HgN/A
3:30 PM91 °FPassing clouds.8 mph32%29.98 "HgN/A
3:00 PM91 °FPassing clouds.8 mph32%29.98 "HgN/A
2:30 PM91 °FPassing clouds.9 mph30%29.98 "HgN/A
2:00 PM91 °FPassing clouds.8 mph32%29.98 "HgN/A
1:30 PM90 °FPassing clouds.7 mph33%30.01 "HgN/A
1:00 PM90 °FPassing clouds.9 mph36%30.01 "HgN/A
12:30 PM88 °FPassing clouds.7 mph35%30.01 "HgN/A
12:00 PM88 °FPassing clouds.8 mph38%30.01 "HgN/A
11:30 AM86 °FWarm.8 mph40%30.01 "HgN/A
11:00 AM84 °FPassing clouds.8 mph43%30.04 "HgN/A
10:30 AM82 °FPassing clouds.8 mph42%30.04 "HgN/A
10:00 AM82 °FWarm.8 mph45%30.04 "HgN/A
9:30 AM79 °FWarm.7 mph51%30.04 "HgN/A
9:00 AM77 °FPassing clouds.6 mph51%30.04 "HgN/A
8:30 AM75 °FPassing clouds.3 mph54%30.04 "HgN/A
8:00 AM72 °FSunny.2 mph61%30.04 "Hg10 mi
7:30 AM70 °FSunny.2 mph64%30.04 "Hg10 mi
7:00 AM68 °FClear.1 mph69%30.01 "Hg10 mi
6:00 AM64 °FClear.2 mph78%30.01 "Hg10 mi
5:30 AM64 °FClear.3 mph78%30.01 "Hg10 mi
5:00 AM68 °FPassing clouds.3 mph69%30.01 "HgN/A
4:30 AM68 °FClear.2 mph69%30.04 "Hg10 mi
4:00 AM68 °FClear.2 mph69%30.04 "Hg10 mi
3:30 AM68 °FClear.1 mph69%30.04 "Hg10 mi
3:00 AM70 °FClear.2 mph64%30.04 "Hg10 mi
2:30 AM70 °FClear.2 mph64%30.04 "Hg10 mi
2:00 AM70 °FClear.2 mph64%30.04 "Hg10 mi
1:30 AM70 °FClear.2 mph64%30.07 "Hg10 mi
1:00 AM72 °FClear.2 mph61%30.07 "Hg10 mi
12:30 AM72 °FPassing clouds.3 mph65%30.07 "HgN/A
12:00 AM75 °FClear.2 mph54%30.07 "Hg10 mi
11:30 PM
Mon, Aug 3
75 °FClear.1 mph54%30.07 "Hg10 mi
11:00 PM75 °FClear.2 mph57%30.07 "Hg10 mi
10:30 PM75 °FPassing clouds.3 mph57%30.07 "HgN/A
10:00 PM79 °FClear.5 mph51%30.07 "Hg10 mi
9:30 PM77 °FSunny.5 mph57%30.04 "Hg10 mi
9:00 PM81 °FSunny.5 mph51%30.04 "Hg10 mi
8:30 PM84 °FSunny.2 mph43%30.04 "Hg10 mi
8:00 PM86 °FSunny.3 mph38%30.04 "Hg10 mi
7:30 PM88 °FPassing clouds.3 mph35%30.04 "HgN/A
7:00 PM88 °FPassing clouds.8 mph35%30.04 "HgN/A
6:30 PM88 °FPassing clouds.7 mph38%30.04 "HgN/A
6:00 PM88 °FPassing clouds.7 mph35%30.04 "HgN/A
5:30 PM88 °FPassing clouds.6 mph35%30.04 "HgN/A
5:00 PM88 °FPassing clouds.7 mph33%30.07 "HgN/A
Weather by CustomWeather, © 2015

See weather overviewHow to use our weather pages